User: anonymous   Login
Location: Huesca
(42.1318°N, 0.4078°W)
Time: 05:51:32
(UTC+02:00)
Language:

STRAND 1 - Orbit

View from above orbital plane
View from above orbital plane
View from above satellite
View from above satellite

Ground track
Ground track

The orbit data is extracted from the following two-line orbital elements,

1 39090U 13009E   24106.49873324  .00000709  00000-0  25878-3 0  9996
2 39090  98.3833 296.5111 0010073  81.5971 278.6357 14.35973507583248
Epoch (UTC): 15 April 2024 11:58:10
Eccentricity: 0.0010073
inclination: 98.3833°
perigee height: 764 km
apogee height: 779 km
right ascension of ascending node: 296.5111°
argument of perigee: 81.5971°
revolutions per day: 14.35973507
mean anomaly at epoch: 278.6357°
orbit number at epoch: 58324

The dashed part of the orbit path shows where the satellite is in the earth's shadow,  

DLR